GLOBALSTAR M054 (25885 NORAD) Tracking and Keplerian Element Data

This shows tracking and keplerian element data for the satellite.

Feedback or suggestion? Click here.




ElementValue
Catalog25885
NameGLOBALSTAR M054
Epoch Orbit10415
Epoch Day34.5869394
Epoch Year2025
RAAN185.9877
Inclination52.0114
Eccentricity0.0004783
Argument of Perigee313.3371
Mean Anonmoly126.5383
Mean Motion11.39216335
Decay Rate-5.5E-07
L11 25885U 99043C 25034.58693940 -.00000055 00000+0 41193-3 0 9992
L22 25885 52.0114 185.9877 0004783 313.3371 126.5383 11.39216335104154



Live tracking and technical data element details for GLOBALSTAR M054 (NORAD 25885). GLOBALSTAR M054 can be tracked NOW for your location showing map with azimuth and elevation plus other details from your city location.







IsCatalogInMostPopularTable: catalog: 25885, numindb: 317
Update: records affected: 1



GetName: 25885 GLOBALSTAR M054

Hit Count: updated at: Thu, 15 May 2025 19:39:44 GMT